This is the latest recevied weather packets stored in our database for station/object XE2RCS-1. If no packets are shown the sender has not sent any weather packets the latest 10 day(s).
| Time | Temp. | Humidity | Pressure | Rain* | Wind** | Luminosity | Snow |
|---|---|---|---|---|---|---|---|
| 1788332749 | 21.67° C | 60% | 1020 hPa | 0 mm | - | - | - |
| 1788332149 | 21.67° C | 60% | 1018 hPa | 0 mm | - | - | - |
| 1788331548 | 21.67° C | 60% | 1018 hPa | 0 mm | - | - | - |
| 1788330947 | 21.67° C | 60% | 1018 hPa | 0 mm | - | - | - |
| 1788330347 | 21.67° C | 60% | 1021 hPa | 0 mm | - | - | - |
| 1788329746 | 21.11° C | 61% | 1020 hPa | 0 mm | - | - | - |
| 1788329150 | 21.11° C | 61% | 1020 hPa | 0 mm | - | - | - |
| 1788328544 | 21.11° C | 61% | 1018 hPa | 0 mm | - | - | - |
| 1788327944 | 21.11° C | 61% | 1018 hPa | 0 mm | - | - | - |
| 1788327343 | 21.67° C | 59% | 1018 hPa | 0 mm | - | - | - |
| 1788326742 | 21.67° C | 58% | 1020 hPa | 0 mm | - | - | - |
| 1788326141 | 21.67° C | 58% | 1020 hPa | 0 mm | - | - | - |
| 1788325540 | 21.67° C | 59% | 1020 hPa | 0 mm | - | - | - |
| 1788324940 | 22.22° C | 58% | 1018 hPa | 0 mm | - | - | - |
| 1788324339 | 22.22° C | 56% | 1018 hPa | 0 mm | - | - | - |
| 1788323738 | 22.22° C | 57% | 1018 hPa | 0 mm | - | - | - |
| 1788323138 | 22.22° C | 57% | 1020 hPa | 0 mm | - | - | - |
| 1788322537 | 22.22° C | 57% | 1020 hPa | 0 mm | - | - | - |
| 1788321937 | 22.22° C | 58% | 1020 hPa | 0 mm | - | - | - |
| 1788321336 | 22.22° C | 58% | 1018 hPa | 0 mm | - | - | - |
| 1788320735 | 22.22° C | 73% | 1018 hPa | 0 mm | - | - | - |
| 1788320134 | 22.22° C | 74% | 1018 hPa | 0 mm | - | - | - |
| 1788319534 | 22.22° C | 73% | 1019 hPa | 0 mm | - | - | - |
| 1788318933 | 22.78° C | 69% | 1019 hPa | 0 mm | - | - | - |
| 1788318332 | 22.78° C | 69% | 1019 hPa | 0 mm | - | - | - |
* Rain latest hour (hover to see other rain measurements)
** Current wind speed in m/s (hover to see current wind gust speed)